Погода в Газанджыке

Погода в Газанджыке : погода сейчас, прогноз погоды и архив. Всё, что Вы хотите узнать о погоде в Газанджыке!

Поиск расширенной информации на нашем сайте:

Другие новости

Новости СМИ2

Главная страница сайта

Новости сайта

03.07.2017

Напоминаем, что на нашем специализированном сайте Метеоцентр.Азия вы можете получить высокодетализированные автоматические прогнозы погоды по пунктам России, СНГ и мира в авиационном формате (включающие направление и скорость ветра, видимость, явления погоды, количество и форму облачности, нижнюю и верхнюю границу облачности).


Погода в Газанджыке - сегодня

Время (UTC), дата Ветер
(°,м/с) 
Видим.   Явления Облачность Т
(°С)
Тd
(°С)
f(%) Тe
(°С)
Pmin
(гПа)
dP
(гПа)
Po
(мм)
O2
(г/м3)
Тmin Tmax R s Состояние
почвы
18 14.08.18 250 (З) 10 км    ясно 
+29.3 +20.4 59 +49  1009.9  1.8  755  270    +36.8       
21 14.08.18 260 (З) 10 км    ясно 
+28.7 +19.3 57 +46  1009.7  -0.2  754  271           
00 15.08.18 280 (З) 10 км    ясно 
+26.2 +19.4 66 +43  1009.4  -0.3  754  273           
03 15.08.18 280 (З) 20000 м    ясно 
+26.7 +19.5 65 +44  1010.7  1.3  752  271           
06 15.08.18 260 (З) 20000 м    ясно 
+31.2 +18 45 +45  1010.3  -0.4  755  269  +25.8         
09 15.08.18 280 (З) 20000 м    1/1 1000 м 
[Cu hum]
+34.5 +17.1 36 +47  1009.9  -0.3  755  266           
12 15.08.18 270 (З) 20000 м    1/1 1000 м 
[Cu hum]
+36.2 +16.5 31 +47  1008.2  -1.7  753  265           
15 15.08.18 250 (З) 20000 м    1/0 средняя 
[Ac cast]
+35.1 +16.3 33 +46  1007.6  -0.6  753  265    +36.8       
18 15.08.18 240 (ЮЗ) 10 км    ясно 
+29.3 +19.3 55 +46  1010.1  2.4  755  270    +36.8       
21 15.08.18 230 (ЮЗ) 10 км    ясно 
+30 +17.3 47 +43  1010  -0.1  755  270           
00 16.08.18 240 (ЮЗ) 10 км    ясно 
+28.2 +18.4 55 +43  1011.1  1.1  755  272           
03 16.08.18 240 (ЮЗ) 20000 м    4/0 средняя 
[Ac trans]
+28.4 +18.8 56 +44  1011.9  0.8  756  272           
06 16.08.18 250 (З) 20000 м    ясно 
+32.1 +18.6 45 +47  1012.4  0.6  756  269  +27.2         
09 16.08.18 250 (З) 20000 м    3/3 1000 м 
[Cu hum]
+34.7 +16.3 33 +45  1011.2  -1.2  756  267           
12 16.08.18 280 (З) 20000 м    3/3 1000 м 
[Cu hum]
+36.9 +17.6 32 +50  1009.5  -1.7  754  264           
15 16.08.18 310 (СЗ) 20000 м    1/1 1000 м 
[Cu hum]
+34.3 +17.4 37 +47  1009.5  754  266    +37       
18 16.08.18 240 (ЮЗ) 10 км    ясно 
+30.4 +19.6 53 +48  1010.5  0.9  755  269    +37       
21 16.08.18 290 (З) 10 км    ясно 
+28.7 +19.2 56 +45  1010.3  -0.2  755  271           
00 17.08.18 240 (ЮЗ) 10 км    ясно 
+28.5 +16.3 48 +39  1010.2  -0.1  755  272           
03 17.08.18 270 (З) 20000 м    ясно 
+28.6 +17.2 50 +41  1009.1  -1.1  754  271           
06 17.08.18 270 (З) 20000 м    ясно 
+31.7 +19.4 48 +49  1009.1  754  268  +27.1         
09 17.08.18 300 (СЗ) 20000 м    1/1 1000 м 
[Cu Sc]
+34.5 +19.2 41 +51  1007.5  -1.5  753  265           
12 17.08.18 330 (СЗ) 20000 м    5/0 средняя 
[Ac trans]
+36 +19.3 38 +53  1005.5  -2  751  263           
15 17.08.18 260 (З) 20000 м    1/0 средняя 
[Ac trans]
+35.4 +18.3 37 +50  1004.7  -0.8  751  264    +36.6       
18 17.08.18 240 (ЮЗ) 10 км    ясно 
+31.1 +20.6 54 +51  1004.8  0.1  751  267    +36.6       
Время (UTC), дата Ветер
(°,м/с) 
Видим.   Явления Облачность Т
(°С)
Тd
(°С)
f(%) Тe
(°С)
Pmin
(гПа)
dP
(гПа)
Po
(мм)
O2
(г/м3)
Тmin Tmax R s Состояние
почвы

Для получения пояснительной информации подведите курсор к названию столбца.

ПОГОДА в Газанджыке - архив

Всё, что Вы хотите узнать о погоде в Газанджыке - удобно и подробно!

Выберите нужную дату (начиная с 1 января 2015* года) и нажмите кнопку "Найти".
Будут отображены архивные сводки погоды по пункту Газанджык, начиная с указанной даты.


Отображать данные в формате CSV (для использования в таблицах Excel)


Внимание! Наш архив погоды предназначен исключительно для личного некоммерческого использования в познавательных целях. Если Вам необходимы официальные справки о состоянии погоды (для производственных, юридических, коммерческих и т.п. целей), обращайтесь в органы Росгидромета.

*Примечание: данная дата относится к архиву по метеостанциям СССР (Россия, СНГ, Балтия).
Архив по метеостанциям Зарубежной Европы и Азии (кроме Китая) хранится 10 дней, по другим регионам земного шара (Китай, Африка, Америка, Австралия, Океания) - 1 день.

Газанджык - район местоположения метеостанции


Название, широта, долгота, высота метеостанции:
Газанджык 39.2°ш. 55.5°д. 31 м над ур. моря [Туркменистан]

Дополнительная информация

В oтличие oт бoльшинства пoгoдных сайтoв мы публикуем пoдрoбную метеoинфoрмацию в детальнoм прoфессиoнальнoм фoрмате.

Характеристики температуры и влажнoсти вoздуха измеряются на высoте 2 м в тени вдали oт зданий и деревьев.
Скoрoсть ветра измеряется на высoте 10 м (на урoвне рoста челoвека скoрoсть ветра ниже в 1.5-2 раза). Если метеoстанция нахoдится в гoрoде или в лесу, тo скoрoсть ветра занижена на 2-4 м/с пo сравнению с oткрытым местoм. Скoрoсть ветра над акватoриями крупных рек и oзёр, а также на вершинах хoлмoв на 2-5 м/с выше, чем в oбычных услoвиях.
Атмoсфернoе давление в разных тoчках местнoсти мoжет значительнo oтличаться oт давления на метеoстанции, в зависимoсти oт услoвий рельефа (при пoдъёме на 10 м давление пoнижается примернo на 1 мм рт.ст.).